Andersen Air Force Base


Codes: PGUA/UAM
Name: Andersen Air Force Base
City: Andersen,Mariana Island
Country: Guam
Elevation: 627 ft.
Wikipedia:

Photos at Andersen Air Force Base


   Photos courtesy of SpottingLog. You can add your own sightings and photos by signing up for a free trial today.



No photos found.

Weather at Andersen Air Force Base


Time (UTC)DescriptionTempratureWindCloud coverageVisibilityPressureHumidity
26-Jun-2024 00:00Light Rain28°C20 mph, E55%10000m1013hPa81%
26-Jun-2024 03:00Broken Clouds29°C18 mph, E77%10000m1012hPa77%
26-Jun-2024 06:00Overcast Clouds29°C18 mph, E95%10000m1011hPa76%
26-Jun-2024 09:00Overcast Clouds29°C18 mph, E94%10000m1012hPa80%
26-Jun-2024 12:00Overcast Clouds29°C18 mph, E97%10000m1013hPa81%
26-Jun-2024 15:00Light Rain29°C20 mph, NE83%10000m1012hPa81%
26-Jun-2024 18:00Broken Clouds29°C20 mph, E64%10000m1011hPa77%
26-Jun-2024 21:00Light Rain29°C20 mph, E100%10000m1013hPa80%
27-Jun-2024 00:00Light Rain29°C20 mph, E89%10000m1013hPa77%
27-Jun-2024 03:00Broken Clouds30°C18 mph, E69%10000m1011hPa72%
27-Jun-2024 06:00Light Rain29°C18 mph, E57%10000m1011hPa75%
27-Jun-2024 09:00Light Rain29°C16 mph, NE6%10000m1011hPa79%
27-Jun-2024 12:00Light Rain29°C18 mph, NE6%10000m1012hPa80%
27-Jun-2024 15:00Light Rain29°C18 mph, NE9%10000m1011hPa74%
27-Jun-2024 18:00Few Clouds28°C16 mph, E17%10000m1010hPa79%
27-Jun-2024 21:00Light Rain29°C16 mph, NE68%10000m1011hPa79%
28-Jun-2024 00:00Light Rain29°C18 mph, E85%10000m1011hPa77%
28-Jun-2024 03:00Light Rain29°C18 mph, E25%10000m1010hPa77%
28-Jun-2024 06:00Light Rain29°C16 mph, E27%10000m1010hPa79%
28-Jun-2024 09:00Light Rain28°C13 mph, E68%10000m1010hPa81%
28-Jun-2024 12:00Light Rain29°C16 mph, E54%10000m1012hPa77%
28-Jun-2024 15:00Light Rain29°C16 mph, E91%10000m1010hPa76%
28-Jun-2024 18:00Overcast Clouds29°C16 mph, E86%10000m1010hPa76%
28-Jun-2024 21:00Light Rain29°C16 mph, E45%10000m1011hPa78%
29-Jun-2024 00:00Light Rain29°C13 mph, E53%10000m1011hPa76%
29-Jun-2024 03:00Broken Clouds30°C13 mph, SE78%10000m1010hPa70%
29-Jun-2024 06:00Overcast Clouds29°C11 mph, SE86%10000m1010hPa72%
29-Jun-2024 09:00Light Rain29°C11 mph, E23%10000m1011hPa77%
29-Jun-2024 12:00Few Clouds29°C13 mph, E20%10000m1012hPa79%
29-Jun-2024 15:00Light Rain28°C13 mph, E24%10000m1011hPa78%
29-Jun-2024 18:00Broken Clouds28°C11 mph, E55%10000m1010hPa74%
29-Jun-2024 21:00Overcast Clouds29°C11 mph, E100%10000m1011hPa76%
30-Jun-2024 00:00Light Rain29°C13 mph, E89%10000m1012hPa73%
30-Jun-2024 03:00Light Rain29°C13 mph, E57%10000m1011hPa76%
30-Jun-2024 06:00Light Rain29°C13 mph, E50%10000m1010hPa73%
30-Jun-2024 09:00Overcast Clouds29°C13 mph, E89%10000m1010hPa77%
30-Jun-2024 12:00Light Rain28°C13 mph, E94%10000m1011hPa79%
30-Jun-2024 15:00Light Rain28°C13 mph, E100%10000m1011hPa74%
30-Jun-2024 18:00Overcast Clouds28°C11 mph, E94%10000m1009hPa77%
30-Jun-2024 21:00Broken Clouds28°C13 mph, E63%10000m1011hPa78%